Quick links : Home Page : Contact Us : Index : Site Map : Search Site : Ephemerides


(164216) 2004 OT11

Orbital Elements

The following orbital elements are taken from MPO123689
(164216) 2004 OT11
Epoch 2007 Oct. 27.0 TT = JDT 2454400.5                 MPC
M  31.93634              (2000.0)            P               Q
n   0.31197423     Peri.  326.14669     -0.11888968     +0.94403025
a   2.1530638      Node   295.28718     -0.81881159     -0.26849764
e   0.5641392      Incl.   19.89492     -0.56161626     +0.19161397
P   3.16           H   17.3           G   0.15           U   1
From 315 observations at 3 oppositions, 2004-2007, mean residual 0".46.
An explanation of the orbital elements is available.

These orbital elements are also available in forms suitable for loading into a number of popular planetarium-type software programs.


Ephemeris

The following ephemeris is at intervals of five days. A daily ephemeris covering the same time interval is also available.

Personalized ephemerides for this (and other) objects may be generated using the Minor Planet & Comet Ephemeris Service.

Date    TT    R. A. (2000) Decl.     Delta      r     Elong.  Phase     V
2008 04 14    02 07.05   +27 36.5    3.574    2.655    20.2     7.5    22.7

Back to Observable Critical-List Minor Planets

MPC

Valid HTML 4.01!